Marshalltown, IA

9:59 AM CDT on August 30, 2016 (GMT -0500)
Marshalltown Municipal

Weather History for KMIW - May, 2013

Change the Weather History Date:

Tuesday, May 28, 2013

  Actual Average Record
Temperature  
Mean Temperature 70 °F 64 °F  
Max Temperature 78 °F 75 °F 91 °F (1998)
Min Temperature 62 °F 54 °F 46 °F (1997)
Degree Days  
Heating Degree Days 0 3  
Month to date heating degree days 227 190  
Since 1 July heating degree days 6979 6975  
Cooling Degree Days 5 3  
Month to date cooling degree days 43 36  
Year to date cooling degree days 47 40  
Growing Degree Days 18 (Base 50)    
Moisture  
Dew Point 64 °F    
Average Humidity 85    
Maximum Humidity 100    
Minimum Humidity 69    
Precipitation  
Precipitation 0.60 in 0.11 in 0.60 in (2013)
Month to date precipitation 13.68 3.60  
Sea Level Pressure  
Sea Level Pressure 29.69 in    
Wind  
Wind Speed 8 mph (South)    
Max Wind Speed 20 mph    
Max Gust Speed 25 mph    
Visibility 8 miles    
Events Rain , Thunderstorm    
T = Trace of Precipitation, MM = Missing Value Source: NWS Daily Summary

Daily Weather History Graph

Daily Weather History Graph

Search for Another Location

Airport or City:

Trip Planner

Search our weather history database for the weather conditions in past years. The results will help you decide how hot, cold, wet, or windy it might be!

Date:

Astronomy

May. 28, 2013 Rise Set
Actual Time 5:40 AM CDT 8:38 PM CDT
Civil Twilight 5:06 AM CDT 9:11 PM CDT
Nautical Twilight 4:24 AM CDT 9:54 PM CDT
Astronomical Twilight 3:34 AM CDT 10:44 PM CDT
Moon 11:59 PM CDT (5/28) 9:30 AM CDT (5/28)
Length of Visible Light 16h 04m
Length of Day
14h 57m
Waning Gibbous, 82% of the Moon is Illuminated
May 28
Waning Gibbous
May 31
Last Quarter
Jun 8
New
Jun 16
First Quarter
Jun 23
Full

Hourly Weather History & Observations

Time (CDT) Temp. Dew Point Humidity Pressure Visibility Wind Dir Wind Speed Gust Speed Precip Events Conditions
12:53 AM 64.9 °F 64.9 °F 100% 29.71 in 8.0 mi East 8.1 mph - N/A   Overcast
1:26 AM 64.4 °F 64.4 °F 100% 29.71 in 4.0 mi East 6.9 mph - 0.03 in Rain , Thunderstorm Light Rain
1:42 AM 64.4 °F 64.4 °F 100% 29.73 in 2.5 mi South 4.6 mph - 0.12 in Rain , Thunderstorm Thunderstorms and Rain
1:46 AM 64.4 °F 64.4 °F 100% 29.75 in 2.5 mi SW 6.9 mph - 0.15 in Rain , Thunderstorm Thunderstorms and Rain
1:53 AM 64.0 °F 64.0 °F 100% 29.73 in 1.2 mi WSW 5.8 mph - 0.31 in Rain , Thunderstorm Heavy Thunderstorms and Rain
2:05 AM 64.4 °F 64.4 °F 100% 29.71 in 3.0 mi ESE 4.6 mph - 0.04 in Rain , Thunderstorm Thunderstorms and Rain
2:14 AM 64.4 °F 64.4 °F 100% 29.70 in 5.0 mi SE 6.9 mph - 0.05 in Rain , Thunderstorm Light Rain
2:53 AM 64.9 °F 64.9 °F 100% 29.70 in 4.0 mi SE 9.2 mph - 0.18 in Rain , Thunderstorm Thunderstorms and Rain
3:25 AM 64.4 °F 64.4 °F 100% 29.67 in 5.0 mi ENE 6.9 mph - 0.07 in Rain Light Rain
3:53 AM 64.0 °F 64.0 °F 100% 29.62 in 10.0 mi ENE 8.1 mph - 0.10 in Rain Light Rain
4:53 AM 63.0 °F 63.0 °F 100% 29.63 in 10.0 mi SE 4.6 mph - 0.01 in   Partly Cloudy
5:25 AM 62.6 °F 62.6 °F 100% 29.67 in 10.0 mi Calm Calm - N/A   Scattered Clouds
5:34 AM 62.6 °F 62.6 °F 100% 29.68 in 9.0 mi Calm Calm - N/A   Mostly Cloudy
5:53 AM 63.0 °F 63.0 °F 100% 29.68 in 4.0 mi South 5.8 mph - N/A   Overcast
6:01 AM 62.6 °F 62.6 °F 100% 29.69 in 2.5 mi South 4.6 mph - N/A   Overcast
6:09 AM 62.6 °F 62.6 °F 100% 29.69 in 0.8 mi South 3.5 mph - N/A   Overcast
6:26 AM 62.6 °F 62.6 °F 100% 29.67 in 2.0 mi ESE 4.6 mph - N/A   Overcast
6:33 AM 62.6 °F 62.6 °F 100% 29.68 in 7.0 mi SE 5.8 mph - N/A   Mostly Cloudy
6:53 AM 63.0 °F 63.0 °F 100% 29.67 in 10.0 mi SE 5.8 mph - N/A   Partly Cloudy
7:35 AM 62.6 °F 62.6 °F 100% 29.68 in 10.0 mi SSE 5.8 mph - N/A   Mostly Cloudy
7:53 AM 63.0 °F 63.0 °F 100% 29.67 in 9.0 mi SSE 5.8 mph - N/A   Overcast
8:53 AM 64.0 °F 64.0 °F 100% 29.66 in 4.0 mi SSE 9.2 mph - N/A   Overcast
9:31 AM 66.2 °F 66.2 °F 100% 29.68 in 10.0 mi SSW 9.2 mph - N/A   Overcast
9:46 AM 68.0 °F 66.2 °F 94% 29.68 in 10.0 mi SSW 9.2 mph - N/A   Overcast
9:53 AM 66.9 °F 64.9 °F 93% 29.67 in 10.0 mi SW 10.4 mph - N/A   Overcast
10:01 AM 68.0 °F 66.2 °F 94% 29.68 in 10.0 mi SSW 6.9 mph - N/A   Mostly Cloudy
10:53 AM 70.0 °F 66.0 °F 87% 29.67 in 10.0 mi SW 6.9 mph - N/A   Overcast
11:34 AM 69.8 °F 66.2 °F 88% 29.68 in 10.0 mi SW 8.1 mph - N/A   Overcast
11:53 AM 71.1 °F 66.0 °F 84% 29.67 in 10.0 mi SSW 6.9 mph - N/A   Overcast
12:53 PM 73.9 °F 66.9 °F 79% 29.68 in 10.0 mi SW 8.1 mph - N/A   Overcast
1:06 PM 75.2 °F 68.0 °F 78% 29.69 in 10.0 mi SW 11.5 mph - N/A   Mostly Cloudy
1:53 PM 73.0 °F 66.9 °F 81% 29.68 in 10.0 mi WSW 9.2 mph - N/A   Mostly Cloudy
2:53 PM 75.9 °F 66.0 °F 71% 29.69 in 10.0 mi WSW 11.5 mph 17.3 mph N/A   Mostly Cloudy
3:53 PM 75.0 °F 66.0 °F 73% 29.71 in 10.0 mi SW 13.8 mph - N/A   Scattered Clouds
4:53 PM 73.0 °F 64.9 °F 76% 29.71 in 10.0 mi SW 9.2 mph - N/A   Clear
5:53 PM 75.9 °F 64.0 °F 67% 29.70 in 10.0 mi SSW 6.9 mph - N/A   Clear
6:53 PM 73.0 °F 64.9 °F 76% 29.68 in 10.0 mi WSW 5.8 mph - N/A   Clear
7:53 PM 71.1 °F 66.0 °F 84% 29.71 in 10.0 mi South 8.1 mph - N/A   Clear
8:53 PM 70.0 °F 64.0 °F 81% 29.72 in 10.0 mi South 6.9 mph - N/A   Clear
9:53 PM 69.1 °F 66.0 °F 90% 29.76 in 10.0 mi South 13.8 mph - N/A   Clear
10:53 PM 64.9 °F 62.1 °F 90% 29.75 in 10.0 mi SE 8.1 mph - N/A   Clear
11:53 PM 64.0 °F 61.0 °F 90% 29.74 in 10.0 mi South 6.9 mph - N/A   Clear